• Processing (Info)

  • MPEC 2019-H14 : 2005 EQ70

    The following Minor Planet Electronic Circular may be linked-to from your own Web pages, but must not otherwise be redistributed electronically.

    A form allowing access to any MPEC is at the bottom of this page.


    Read MPEC 2019-H13 Read MPEC 2019-H15


    M.P.E.C. 2019-H14                                Issued 2019 Apr. 18, 10:30 UT
    
         The Minor Planet Electronic Circulars contain information on unusual
             minor planets and routine data on comets.  They are published
        on behalf of Division F of the International Astronomical Union by the
              Minor Planet Center, Smithsonian Astrophysical Observatory,
                              Cambridge, MA 02138, U.S.A.
    
                 Prepared using the Tamkin Foundation Computer Network
    
                                  MPC@CFA.HARVARD.EDU
                URL https://www.minorplanetcenter.net/    ISSN 1523-6714
    
                                       2005 EQ70
    
                               Revision to MPEC 2005-E53
    
    Additional Observations:
         K05E70Q  C2015 12 09.50453 05 15 59.127+24 58 51.44         21.8 wLEH014F51
         K05E70Q  C2015 12 09.51839 05 15 57.899+24 58 54.20         21.8 wLEH014F51
         K05E70Q  C2015 12 09.53225705 15 56.680+24 58 56.82         22.5 GVEH014F51
         K05E70Q  C2015 12 09.54616 05 15 55.452+24 59 00.09         21.9 wLEH014F51
         K05E70Q  C2015 12 13.35838505 10 23.733+25 12 09.58         21.9 GVEH014F51
         K05E70Q  C2015 12 13.36960005 10 22.686+25 12 11.85         21.7 GVEH014F51
         K05E70Q  C2015 12 13.38080305 10 21.644+25 12 14.16         22.1 GVEH014F51
         K05E70Q  C2016 01 03.37135704 39 31.407+26 09 42.80         21.7 GVEH014F51
         K05E70Q  C2016 01 03.39288304 39 29.675+26 09 45.49         21.7 GVEH014F51
         K05E70Q  C2016 01 03.40371204 39 28.810+26 09 46.85         22.5 GVEH014F51
         K05E70Q  C2016 01 08.23359904 33 48.197+26 20 06.38         21.6 GVEH014F51
         K05E70Q  C2016 01 08.26069504 33 46.348+26 20 10.02         22.1 GVEH014F51
         K05E70Q  C2016 01 08.27421304 33 45.412+26 20 11.70         23.0 GVEH014F51
         K05E70Q  C2016 01 16.24847604 26 42.519+26 37 11.13         22.2 GVEH014F51
         K05E70Q  C2016 01 16.26066104 26 41.973+26 37 12.80         23.0 GVEH014F51
         K05E70Q  C2016 02 02.32564604 23 14.951+27 22 32.67         22.2 GVEH014F51
         K05E70Q  C2016 02 02.33793204 23 15.097+27 22 34.80         22.3 GVEH014F51
         K05E70Q  C2016 03 01.24440504 51 54.478+29 09 59.71         23.2 GVEH014F51
         K05E70Q  C2016 03 01.25583604 51 55.622+29 10 02.31         23.8 GVEH014F51
         K05E70Q  C2016 03 01.27866004 51 57.822+29 10 07.72         22.8 GVEH014F51
         K05E70Q  C2016 04 17.27268006 55 14.490+29 55 42.75         21.9 GVEH014F51
         K05E70Q  C2016 04 17.28237406 55 16.358+29 55 40.84         21.9 GVEH014F51
    
    Observer details:
    F51 Pan-STARRS 1, Haleakala.  Observers B. Gibson, T. Goggia, N. Primak,
        A. Schultz, M. Willman, J. Bulger, K. Chambers, T. Lowe, E. Magnier.
        Measurers K. Chambers, S. Chastel, L. Denneau, H. Flewelling, M. Huber,
        E. Lilly, E. Magnier, R. Wainscoat, C. Waters, R. Weryk, Y. Ramanjooloo.
        1.8-m Ritchey-Chretien + CCD.
    
    First and last observations above in comparison with prediction:
    Residuals in seconds of arc (or two decimals in degrees), reference and Delta-T
    151209 F51 0.17+ 0.03+    160417 F51 0.12+ 0.01+    MPO 77827   -0.33 day
    
    Orbital elements:
    2005 EQ70                                                Earth MOID = 0.3004 AU
    Epoch 2019 Apr. 27.0 TT = JDT 2458600.5                 MPC
    M 284.36156              (2000.0)            P               Q
    n   0.26420713     Peri.  104.27619     -0.98904173     -0.10667335
    a   2.4053209      Node    69.67938     +0.05281966     -0.90123859
    e   0.4715071      Incl.    6.24837     +0.13786419     -0.41998785
    P   3.73           H   20.3           G   0.15           U   1
    Residuals in seconds of arc
    050308 704  0.6+  0.2-    050322 F65  0.5-  0.2+    050416 941  0.4-  0.3-
    050308 704  0.0   0.1-    050331 246  0.6+  0.9+    050502 H36  0.8+  0.8-
    050308 704  0.4+  1.0+    050331 246  0.8+  0.4+    050502 H36  0.6-  0.2-
    050308 704  0.4+  0.2+    050331 246  0.3+  0.4-    050502 H36  0.3+  0.8-
    050309 854  0.2+  0.3+    050331 246  0.5+  0.2+    050502 H36  0.1+  0.5-
    050309 854  0.3-  1.2-    050331 246  0.1+  0.5-    050502 H36  0.3-  1.0+
    050309 854  1.2+  2.6-    050331 113  0.2-  0.1-    050604 291  0.1-  0.0
    050309 850  0.5+  0.3-    050331 113  0.2-  0.2+    050604 291  0.9+  0.4+
    050309 850  2.1-  0.3+    050331 113  0.0   0.4+    050604 291  0.3+  0.1+
    050309 704  0.9+  0.3+    050331 113  0.1-  0.6+    151209 F51  0.1+  0.0
    050309 704  0.8+  0.2-    050402 113  0.1-  1.0+    151209 F51  0.0   0.0
    050309 704  0.2-  0.1+    050402 113  0.0   0.0     151209 F51  0.0   0.2-
    050309 704  0.0   0.2-    050402 113  0.1-  0.1-    151209 F51  0.0   0.3+
    050310 H06  0.1+  0.1-    050406 703  0.4-  0.7-    151213 F51  0.0   0.0
    050310 H06  0.6-  0.0     050406 703  0.0   0.3-    151213 F51  0.1-  0.1-
    050310 H06  0.0   0.2-    050406 703  0.2-  0.1+    151213 F51  0.1-  0.1-
    050310 704  0.3+  1.1+    050406 703  0.7-  0.1-    160103 F51  0.0   0.1-
    050310 704  0.1+  0.7+    050408 704  0.2+  0.6+    160103 F51  0.0   0.1-
    050310 704  0.0   0.5+    050408 704  1.0+  0.2-    160103 F51  0.0   0.1-
    050310 704  0.3+  0.1-    050408 704  0.3+  0.4-    160108 F51  0.3-  0.2+
    050312 704  0.1-  0.1+    050408 704  0.6+  0.4+    160108 F51  0.2-  0.1+
    050312 704  0.5-  0.4-    050408 704  0.7+  0.7+    160108 F51  0.3-  0.1-
    050312 704  0.3+  0.7+    050413 703  0.8-  0.3-    160116 F51  0.1+  0.0
    050312 704  0.6+  0.0     050413 703  0.5-  0.2+    160116 F51  0.1+  0.0
    050312 704  0.8+  1.0+    050413 703  0.9-  0.0     160202 F51  0.3+  0.2+
    050313 703  0.2+  0.0     050413 703  0.7-  0.6-    160202 F51  0.1+  0.1+
    050313 703  0.6-  0.3+    050413 A13  0.6-  1.4-    160301 F51  0.6+  0.2-
    050313 703  0.4-  1.1-    050413 A13  0.5-  0.1+    160301 F51  0.7+  0.2-
    050313 703  1.1-  0.8+    050413 A13  0.3-  0.7-    160301 F51  0.2-  0.1-
    050316 704  0.0   0.7+    050413 A13  0.2-  0.6-    160417 F51  0.2+  0.4-
    050316 704  0.2+  0.3-    050416 941  0.2-  0.4+    160417 F51  0.5-  0.5+
    050316 704  0.1+  0.1+    050416 941  0.1-  0.0
    050322 F65  0.2-  0.2+    050416 941  0.4-  0.3-
    
    Ephemeris:
    2005 EQ70                a,e,i = 2.41, 0.47, 6                   q = 1.2712
    Date    TT    R. A. (2000) Decl.     Delta      r     Elong.  Phase     V
    2019 03 19    01 49 07.3 +08 34 03   3.6246  2.8144    30.6    10.4    26.0
    ...
    2019 04 03    02 09 26.1 +10 41 30   3.6582  2.7505    21.3     7.6    25.9
    ...
    2019 04 11    02 20 54.6 +11 49 10   3.6615  2.7152    16.4     6.0    25.8
    ...
    2019 04 17    02 29 47.6 +12 39 27   3.6572  2.6883    12.9     4.8    25.7
    2019 04 18    02 31 17.7 +12 47 46   3.6560  2.6837    12.3     4.6    25.7
    2019 04 19    02 32 48.3 +12 56 05   3.6545  2.6792    11.7     4.4    25.6
    ...
    2019 04 25    02 42 00.0 +13 45 31   3.6429  2.6516     8.3     3.1    25.5
    ...
    2019 05 03    02 54 37.4 +14 50 10   3.6188  2.6142     4.0     1.5    25.4
    ...
    2019 05 18    03 19 23.9 +16 46 09   3.5480  2.5419     4.9     2.0    25.3
    
    A. U. Tomatic                (C) Copyright 2019 MPC           M.P.E.C. 2019-H14
    

    Read MPEC 2019-H13 Read MPEC 2019-H15


    MPEC number:

    Enter an MPEC number in one of the following forms:

    • 1997-B01 (the full form)
    • J97B01 (the packed version of the full form)
    • B01 (the abbreviated form)